TimeGMT,TemperatureF,Dew PointF,Humidity,Sea Level PressureIn,VisibilityMPH,Wind Direction,Wind SpeedMPH,Gust SpeedMPH,PrecipitationIn,Events,Conditions,WindDirDegrees,DateUTC
12:00 AM,48,48,100,30.14,,SSE,13.4,,,,,160,2013-01-07 00:00:00
6:00 AM,48,48,98,30.01,0,SSE,13.4,,,Rain,Light Rain,150,2013-01-07 06:00:00
6:00 AM,48.2,48.2,100,29.98,0.5,SSE,12.7,-,N/A,Fog-Rain,Light Rain,150,2013-01-07 06:00:00
6:30 AM,48.2,48.2,100,29.98,0.5,SSE,11.5,-,N/A,Fog-Rain,Light Rain,150,2013-01-07 06:30:00
7:00 AM,48.2,48.2,100,29.98,0.4,SSE,12.7,-,N/A,Fog-Rain,Light Rain,160,2013-01-07 07:00:00
7:30 AM,48.2,48.2,100,29.98,0.4,SSE,11.5,-,N/A,Fog-Rain,Light Rain,160,2013-01-07 07:30:00
8:00 AM,48.2,48.2,100,29.98,0.4,SSE,11.5,-,N/A,Fog-Rain,Rain,160,2013-01-07 08:00:00
8:30 AM,48.2,48.2,100,29.98,0.5,SSE,12.7,-,N/A,Fog-Rain,Light Rain,160,2013-01-07 08:30:00
9:00 AM,48.2,48.2,100,29.98,0.7,SSE,12.7,-,N/A,Rain,Light Rain,160,2013-01-07 09:00:00
9:30 AM,48.2,48.2,100,29.98,0.6,South,12.7,-,N/A,Fog-Rain,Light Rain,170,2013-01-07 09:30:00
10:00 AM,50.0,50.0,100,29.98,1.7,South,13.8,-,N/A,Rain,Light Rain,170,2013-01-07 10:00:00
10:30 AM,50.0,50.0,100,29.98,1.2,South,11.5,-,N/A,Rain,Light Rain,170,2013-01-07 10:30:00
11:00 AM,50.0,50.0,100,29.98,1.7,South,12.7,-,N/A,Rain,Light Rain,170,2013-01-07 11:00:00
11:30 AM,50.0,50.0,100,29.98,1.9,South,12.7,-,N/A,Rain,Light Rain,180,2013-01-07 11:30:00
12:00 PM,50,50,100,29.99,2,South,13.4,,,Rain,Light Rain,180,2013-01-07 12:00:00
12:00 PM,50.0,50.0,100,29.98,-9999.0,South,12.7,-,N/A,Rain,Light Rain,180,2013-01-07 12:00:00
12:30 PM,50.0,50.0,100,29.95,-9999.0,South,13.8,-,N/A,Rain,Light Rain,180,2013-01-07 12:30:00
1:00 PM,50.0,50.0,100,29.95,0.2,South,15.0,-,N/A,Rain,Light Rain,180,2013-01-07 13:00:00
1:30 PM,50.0,50.0,100,29.95,0.4,South,15.0,-,N/A,,Light Drizzle,190,2013-01-07 13:30:00
2:00 PM,50.0,50.0,100,29.95,0.1,South,15.0,-,N/A,,Light Drizzle,180,2013-01-07 14:00:00
2:30 PM,51.8,50.0,94,29.95,0.1,South,13.8,-,N/A,Rain,Light Drizzle,190,2013-01-07 14:30:00
3:00 PM,51.8,51.8,100,29.95,0.1,South,11.5,-,N/A,,Light Drizzle,190,2013-01-07 15:00:00
3:30 PM,51.8,51.8,100,29.95,0.2,South,10.4,-,N/A,Fog-Rain,Light Rain,180,2013-01-07 15:30:00
4:00 PM,51.8,51.8,100,29.95,0.2,South,9.2,-,N/A,Fog-Rain,Light Rain,170,2013-01-07 16:00:00
4:30 PM,51.8,51.8,100,29.95,0.2,South,12.7,-,N/A,Fog-Rain,Light Rain,170,2013-01-07 16:30:00
5:00 PM,51.8,51.8,100,29.92,0.3,South,11.5,-,N/A,Rain,Light Rain,170,2013-01-07 17:00:00